GW7738 Weather Reports


time (UTC)temp
C
wind
direction
speed
KPH
gust
KPH
rain 1hr
cm
rain 24hr
cm
rain mn
cm
humidity
%
barometer
mb
20260906052306 24 51 1.6 3.2 0.00 0.00 0.00 89 1012.6
20260906051805 24 125 1.6 3.2 0.00 0.00 0.00 90 1012.6
20260906051305 24 287 1.6 4.8 0.00 0.00 0.00 91 1013.0
20260906050805 24 239 0.0 4.8 0.00 0.00 0.00 91 1013.0
20260906050304 24 99 0.0 1.6 0.00 0.00 0.00 90 1013.0
20260906045805 24 224 0.0 0.0 0.00 0.00 0.00 90 1013.0
20260906045306 24 205 0.0 1.6 0.00 0.00 0.00 90 1013.3
20260906044805 24 242 0.0 1.6 0.00 0.00 0.00 90 1013.0
20260906044304 24 77 0.0 1.6 0.00 0.00 0.00 90 1013.0
20260906043805 24 249 0.0 1.6 0.00 0.00 0.00 91 1013.0
20260906043305 24 147 0.0 3.2 0.00 0.00 0.00 91 1013.0
20260906042805 24 121 0.0 3.2 0.00 0.00 0.00 91 1013.3
20260906042306 24 18 0.0 1.6 0.00 0.00 0.00 91 1013.3
20260906041805 24 89 0.0 1.6 0.00 0.00 0.00 90 1013.0
20260906041305 24 269 0.0 1.6 0.00 0.00 0.00 90 1013.0
20260906040805 25 147 0.0 1.6 0.00 0.00 0.00 90 1012.6
20260906040305 24 117 0.0 1.6 0.00 0.00 0.00 91 1013.0
20260906035805 24 333 0.0 1.6 0.00 0.00 0.00 90 1013.0
20260906035306 24 147 0.0 0.0 0.00 0.00 0.00 90 1013.0
20260906034805 24 154 0.0 0.0 0.00 0.00 0.00 90 1013.0
20260906034304 25 154 0.0 0.0 0.00 0.00 0.00 90 1013.3
20260906033805 25 242 0.0 0.0 0.00 0.00 0.00 91 1013.0
20260906033305 25 154 0.0 0.0 0.00 0.00 0.00 90 1013.0
20260906032805 25 166 0.0 1.6 0.00 0.00 0.00 90 1013.0
20260906032306 25 256 0.0 1.6 0.00 0.00 0.00 91 1013.0
20260906031804 25 89 0.0 3.2 0.00 0.00 0.00 90 1013.0
20260906031304 25 122 0.0 3.2 0.00 0.00 0.00 88 1013.0
20260906030804 25 347 0.0 1.6 0.00 0.00 0.00 88 1013.0
20260906030304 25 230 0.0 0.0 0.00 0.00 0.00 90 1013.0
20260906025804 25 113 0.0 3.2 0.00 0.00 0.00 88 1013.0
20260906025306 26 118 0.0 3.2 0.00 0.00 0.00 86 1013.0
20260906024804 26 96 1.6 3.2 0.00 0.00 0.00 85 1013.0
20260906024304 26 124 0.0 3.2 0.00 0.00 0.00 82 1013.0
20260906023805 26 62 0.0 3.2 0.00 0.00 0.00 85 1012.6
20260906023305 25 243 0.0 3.2 0.00 0.00 0.00 88 1012.6
20260906022805 25 8 3.2 3.2 0.00 0.00 0.00 89 1012.3
20260906022307 25 284 0.0 3.2 0.00 0.00 0.00 89 1012.3
20260906021805 26 99 0.0 3.2 0.00 0.00 0.00 88 1012.3
20260906021304 26 108 1.6 3.2 0.00 0.00 0.00 86 1012.6
20260906020804 26 89 0.0 1.6 0.00 0.00 0.00 85 1012.3
20260906020304 26 256 0.0 3.2 0.00 0.00 0.00 86 1012.3
20260906015805 26 297 0.0 3.2 0.00 0.00 0.00 88 1012.3
20260906015306 26 269 0.0 3.2 0.00 0.00 0.00 89 1011.9
20260906014805 26 224 0.0 3.2 0.00 0.00 0.00 88 1012.3
20260906014304 26 12 0.0 1.6 0.00 0.00 0.00 89 1011.9
20260906013805 26 81 0.0 1.6 0.00 0.00 0.00 88 1012.3
20260906013305 26 230 0.0 1.6 0.00 0.00 0.00 88 1011.9
20260906012805 26 242 0.0 1.6 0.00 0.00 0.00 88 1011.9
20260906012306 27 75 0.0 3.2 0.00 0.00 0.00 85 1011.9
20260906011804 27 89 0.0 3.2 0.00 0.00 0.00 84 1012.3
20260906011304 27 98 0.0 1.6 0.00 0.00 0.00 81 1011.6
20260906010804 27 224 0.0 3.2 0.00 0.00 0.00 82 1011.9
20260906010305 27 274 1.6 3.2 0.00 0.00 0.00 82 1011.6
20260906005804 27 225 0.0 3.2 0.00 0.00 0.00 84 1011.9
20260906005306 27 145 1.6 3.2 0.00 0.00 0.00 82 1011.6
20260906004805 27 341 0.0 1.6 0.00 0.00 0.00 81 1011.6
20260906004305 28 303 0.0 3.2 0.00 0.00 0.00 80 1011.6
20260906003804 28 89 0.0 3.2 0.00 0.00 0.00 80 1011.6
20260906003305 28 96 1.6 3.2 0.00 0.00 0.00 78 1011.6
20260906002805 28 256 0.0 1.6 0.00 0.00 0.00 77 1011.2
20260906002306 28 269 0.0 1.6 0.00 0.00 0.00 76 1011.6
20260906001804 28 224 0.0 1.6 0.00 0.00 0.00 76 1011.6
20260906001304 28 209 0.0 1.6 0.00 0.00 0.00 74 1011.6
20260906000805 30 89 0.0 1.6 0.00 0.00 0.00 74 1011.9
20260906000304 30 135 0.0 3.2 0.00 0.00 0.00 73 1011.6
20260905235805 30 179 1.6 1.6 0.00 0.00 0.00 71 1011.9
20260905235306 30 5 0.0 1.6 0.00 0.00 0.00 70 1011.9
20260905234804 31 336 0.0 1.6 0.00 0.00 0.00 69 1011.9
20260905234305 31 297 0.0 1.6 0.00 0.00 0.00 71 1011.9
20260905233804 31 117 0.0 1.6 0.00 0.00 0.00 70 1011.9
20260905233305 31 135 0.0 0.0 0.00 0.00 0.00 67 1011.9
20260905232804 31 44 0.0 1.6 0.00 0.00 0.00 67 1011.9
20260905232306 32 98 0.0 1.6 0.00 0.00 0.00 65 1011.9
20260905231804 32 242 0.0 3.2 0.00 0.00 0.00 65 1011.9
20260905231305 32 89 0.0 3.2 0.00 0.00 0.00 63 1011.6
20260905230804 32 189 0.0 3.2 0.00 0.00 0.00 63 1011.9
20260905230304 31 329 0.0 4.8 0.00 0.00 0.00 63 1011.6
20260905225805 31 149 3.2 8.0 0.00 0.00 0.00 64 1011.6
20260905225306 31 100 1.6 8.0 0.00 0.00 0.00 63 1011.9
20260905224805 32 100 3.2 4.8 0.00 0.00 0.00 67 1011.6
20260905224304 32 16 3.2 3.2 0.00 0.00 0.00 63 1011.6
20260905223804 32 315 0.0 1.6 0.00 0.00 0.00 62 1011.6
20260905223304 32 333 0.0 3.2 0.00 0.00 0.00 63 1011.9
20260905222804 32 322 0.0 3.2 0.00 0.00 0.00 61 1011.6
20260905222306 32 224 0.0 6.4 0.00 0.00 0.00 63 1011.9
20260905221804 32 214 0.0 6.4 0.00 0.00 0.00 58 1011.9
20260905221304 32 209 0.0 3.2 0.00 0.00 0.00 59 1011.9
20260905220804 34 93 0.0 1.6 0.00 0.00 0.00 57 1011.9
20260905220304 34 309 0.0 0.0 0.00 0.00 0.00 55 1011.9
20260905215804 34 44 0.0 1.6 0.00 0.00 0.00 54 1011.9
20260905215306 35 44 0.0 1.6 0.00 0.00 0.00 51 1011.9
20260905214804 34 164 0.0 1.6 0.00 0.00 0.00 52 1011.9
20260905214304 33 209 0.0 1.6 0.00 0.00 0.00 55 1011.9
20260905213804 33 103 0.0 3.2 0.00 0.00 0.00 58 1011.9
20260905213304 33 50 0.0 3.2 0.00 0.00 0.00 62 1011.9
20260905212804 33 54 1.6 3.2 0.00 0.00 0.00 58 1011.9
20260905212306 34 44 0.0 3.2 0.00 0.00 0.00 57 1011.9
20260905211804 35 148 0.0 4.8 0.00 0.00 0.00 49 1012.3
20260905211304 35 222 0.0 6.4 0.00 0.00 0.00 46 1011.9
20260905210805 36 206 4.8 9.7 0.00 0.00 0.00 47 1012.3
20260905210304 36 243 0.0 9.7 0.00 0.00 0.00 46 1012.3
20260905205805 36 278 4.8 6.4 0.00 0.00 0.00 47 1011.9
20260905205306 36 82 1.6 6.4 0.00 0.00 0.00 46 1012.3
20260905204804 35 88 4.8 6.4 0.00 0.00 0.00 50 1012.3
20260905204304 35 196 1.6 8.0 0.00 0.00 0.00 48 1012.3
20260905203804 35 56 4.8 8.0 0.00 0.00 0.00 49 1012.3
20260905203305 35 74 1.6 4.8 0.00 0.00 0.00 51 1012.3
20260905202804 35 70 4.8 8.0 0.00 0.00 0.00 49 1012.6
20260905202306 35 49 3.2 8.0 0.00 0.00 0.00 49 1012.3
20260905201804 36 65 6.4 8.0 0.00 0.00 0.00 48 1012.6
20260905201304 36 184 1.6 9.7 0.00 0.00 0.00 47 1012.6
20260905200804 36 6 6.4 9.7 0.00 0.00 0.00 47 1012.6
20260905200304 36 268 4.8 8.0 0.00 0.00 0.00 48 1012.6
20260905195804 35 323 3.2 9.7 0.00 0.00 0.00 48 1013.0
20260905195306 35 331 0.0 11.3 0.00 0.00 0.00 47 1013.0
20260905194804 35 317 3.2 11.3 0.00 0.00 0.00 46 1013.0
20260905194304 35 350 4.8 8.0 0.00 0.00 0.00 47 1013.3
20260905193803 35 233 1.6 8.0 0.00 0.00 0.00 47 1013.3
20260905193303 35 351 8.0 8.0 0.00 0.00 0.00 50 1013.7
20260905192804 35 122 4.8 6.4 0.00 0.00 0.00 49 1013.7
20260905192306 35 114 3.2 6.4 0.00 0.00 0.00 51 1013.7
20260905191804 35 208 6.4 6.4 0.00 0.00 0.00 49 1013.7
20260905191304 35 229 4.8 6.4 0.00 0.00 0.00 48 1014.0
20260905190804 33 296 3.2 4.8 0.00 0.00 0.00 54 1014.0
20260905190303 33 53 0.0 4.8 0.00 0.00 0.00 57 1014.0
20260905185804 35 40 1.6 4.8 0.00 0.00 0.00 50 1014.0
20260905185305 35 79 3.2 12.9 0.00 0.00 0.00 50 1014.0
20260905184804 35 79 3.2 12.9 0.00 0.00 0.00 50 1014.4
20260905184304 35 332 3.2 6.4 0.00 0.00 0.00 48 1014.0
20260905183803 35 285 4.8 6.4 0.00 0.00 0.00 48 1014.0
20260905183303 35 119 1.6 8.0 0.00 0.00 0.00 50 1014.4
20260905182804 35 83 0.0 8.0 0.00 0.00 0.00 49 1014.0
20260905182305 34 150 1.6 8.0 0.00 0.00 0.00 49 1014.0
20260905181803 34 149 8.0 8.0 0.00 0.00 0.00 51 1014.4
20260905181303 35 180 3.2 6.4 0.00 0.00 0.00 50 1014.4
20260905180804 35 53 0.0 4.8 0.00 0.00 0.00 51 1014.4
20260905180303 35 219 4.8 4.8 0.00 0.00 0.00 49 1014.4
20260905175804 35 219 4.8 4.8 0.00 0.00 0.00 49 1014.7
20260905175306 35 209 0.0 4.8 0.00 0.00 0.00 48 1014.4
20260905174803 35 232 3.2 4.8 0.00 0.00 0.00 50 1014.4
20260905174303 34 190 0.0 4.8 0.00 0.00 0.00 51 1014.4
20260905173803 35 164 3.2 3.2 0.00 0.00 0.00 50 1014.4
20260905153304 32 198 3.2 4.8 0.00 0.00 0.00 57 1015.8
20260905152803 32 198 3.2 4.8 0.00 0.00 0.00 57 1015.8
20260905152306 32 198 3.2 4.8 0.00 0.00 0.00 57 1015.8
20260905143804 30 121 1.6 3.2 0.00 0.00 0.00 68 1015.8
20260905143303 30 121 1.6 3.2 0.00 0.00 0.00 68 1015.8
20260905142804 30 121 1.6 3.2 0.00 0.00 0.00 68 1015.8
20260905142306 30 265 0.0 4.8 0.00 0.00 0.00 69 1015.8
20260905141803 30 170 1.6 4.8 0.00 0.00 0.00 68 1015.8
20260905141303 30 339 3.2 4.8 0.00 0.00 0.00 67 1015.8
20260905140804 30 356 1.6 4.8 0.00 0.00 0.00 68 1015.8
20260905140303 30 328 1.6 3.2 0.00 0.00 0.00 70 1015.8
20260905135803 29 274 0.0 1.6 0.00 0.00 0.00 73 1015.8
20260905135306 29 224 0.0 3.2 0.00 0.00 0.00 73 1015.8
20260905134803 29 226 0.0 3.2 0.00 0.00 0.00 76 1015.8
20260905134303 28 50 0.0 3.2 0.00 0.00 0.00 74 1015.8
20260905133803 28 25 0.0 3.2 0.00 0.00 0.00 73 1015.8
20260905133303 28 63 0.0 3.2 0.00 0.00 0.00 76 1016.1
20260905132803 27 235 0.0 3.2 0.00 0.00 0.00 77 1016.1
20260905132305 27 64 0.0 3.2 0.00 0.00 0.00 79 1015.8
20260905131803 27 104 0.0 3.2 0.00 0.00 0.00 80 1015.8
20260905131303 27 320 0.0 3.2 0.00 0.00 0.00 79 1016.1
20260905130803 27 66 0.0 1.6 0.00 0.00 0.00 79 1015.8
20260905130304 26 255 0.0 1.6 0.00 0.00 0.00 83 1015.8
20260905125803 26 117 0.0 3.2 0.00 0.00 0.00 84 1015.8
20260905125305 25 68 0.0 3.2 0.00 0.00 0.00 86 1015.8
20260905124803 24 224 0.0 1.6 0.00 0.00 0.00 91 1015.8
20260905124303 23 280 0.0 1.6 0.00 0.00 0.00 94 1015.8
20260905123803 23 280 0.0 1.6 0.00 0.00 0.00 94 1015.8
20260905123303 23 276 0.0 1.6 0.00 0.00 0.00 94 1015.8
20260905122803 23 62 0.0 1.6 0.00 0.00 0.00 94 1015.4
20260905122306 22 129 0.0 1.6 0.00 0.00 0.00 94 1015.4
20260905121803 22 217 0.0 1.6 0.00 0.00 0.00 94 1015.4
20260905121303 22 249 0.0 3.2 0.00 0.00 0.00 94 1015.4
20260905120804 22 300 0.0 3.2 0.00 0.00 0.00 94 1015.8
20260905120302 22 107 0.0 1.6 0.00 0.00 0.00 95 1015.1
20260905115803 22 279 0.0 1.6 0.00 0.00 0.00 95 1015.8
20260905115306 21 228 0.0 3.2 0.00 0.00 0.00 97 1015.4
20260905114803 21 142 0.0 3.2 0.00 0.00 0.00 97 1015.4
20260905114303 21 229 0.0 1.6 0.00 0.00 0.00 97 1015.1
20260905113802 21 135 0.0 1.6 0.00 0.00 0.00 97 1015.4
20260905113303 21 101 0.0 3.2 0.00 0.00 0.00 97 1014.7
20260905112803 21 149 0.0 3.2 0.00 0.00 0.00 97 1015.1
20260905112305 21 269 0.0 0.0 0.00 0.00 0.00 97 1015.1
20260905111803 21 102 0.0 0.0 0.00 0.00 0.00 97 1015.1
20260905111303 21 135 0.0 0.0 0.00 0.00 0.00 97 1014.7
20260905110803 21 44 0.0 1.6 0.00 0.00 0.00 97 1015.1
20260905110303 21 236 0.0 1.6 0.00 0.00 0.00 97 1014.7
20260905105803 21 256 0.0 1.6 0.00 0.00 0.00 97 1014.7
20260905105306 21 297 0.0 1.6 0.00 0.00 0.00 97 1014.7
20260905104803 21 89 0.0 1.6 0.00 0.00 0.00 97 1014.7
20260905104303 21 44 0.0 1.6 0.00 0.00 0.00 97 1014.7
20260905103803 21 269 0.0 0.0 0.00 0.00 0.00 97 1014.4
20260905103303 21 102 0.0 1.6 0.00 0.00 0.00 97 1014.7
20260905102803 21 89 0.0 1.6 0.00 0.00 0.00 97 1014.7
20260905102306 21 135 0.0 0.0 0.00 0.00 0.00 96 1014.4
20260905101803 21 135 0.0 0.0 0.00 0.00 0.00 96 1014.4
20260905101303 21 104 0.0 0.0 0.00 0.00 0.00 96 1014.4
20260905100803 21 284 0.0 1.6 0.00 0.00 0.00 96 1014.4
20260905100303 21 104 0.0 1.6 0.00 0.00 0.00 96 1014.4
20260905095803 21 137 1.6 1.6 0.00 0.00 0.00 96 1014.0
20260905095305 21 255 0.0 1.6 0.00 0.00 0.00 96 1014.4
20260905094803 21 235 0.0 0.0 0.00 0.00 0.00 96 1014.4
20260905094303 21 255 0.0 0.0 0.00 0.00 0.00 96 1014.0
20260905093803 21 89 0.0 1.6 0.00 0.00 0.00 96 1014.0
20260905093304 21 158 0.0 1.6 0.00 0.00 0.00 96 1014.4
20260905092803 21 141 0.0 1.6 0.00 0.00 0.00 96 1014.0
20260905092306 21 217 0.0 0.0 0.00 0.00 0.00 96 1014.0
20260905091803 21 255 0.0 1.6 0.00 0.00 0.00 95 1014.0
20260905091303 21 135 0.0 1.6 0.00 0.00 0.00 96 1014.0
20260905090803 21 124 0.0 3.2 0.00 0.00 0.00 95 1014.0
20260905090303 22 114 0.0 3.2 0.00 0.00 0.00 94 1014.0
20260905085803 22 77 0.0 3.2 0.00 0.00 0.00 94 1014.0
20260905085305 22 73 0.0 3.2 0.00 0.00 0.00 94 1014.0
20260905084803 22 17 1.6 3.2 0.00 0.00 0.00 94 1014.0
20260905084303 21 66 0.0 1.6 0.00 0.00 0.00 95 1014.0
20260905083803 21 258 1.6 1.6 0.00 0.00 0.00 95 1014.0
20260905083303 22 129 0.0 3.2 0.00 0.00 0.00 96 1014.0
20260905082803 22 246 0.0 3.2 0.00 0.00 0.00 95 1014.0
20260905082306 22 89 0.0 3.2 0.00 0.00 0.00 95 1014.0
20260905081803 22 99 1.6 3.2 0.00 0.00 0.00 95 1014.0
20260905081303 22 41 0.0 3.2 0.00 0.00 0.00 95 1014.0
20260905080803 22 224 0.0 1.6 0.00 0.00 0.00 95 1014.0
20260905080302 22 72 0.0 1.6 0.00 0.00 0.00 95 1014.0
20260905075803 22 113 0.0 1.6 0.00 0.00 0.00 95 1014.0
20260905075306 22 66 0.0 0.0 0.00 0.00 0.00 95 1014.0
20260905074803 22 230 0.0 1.6 0.00 0.00 0.00 95 1014.0
20260905074303 22 255 0.0 1.6 0.00 0.00 0.00 95 1014.0
20260905073803 22 135 0.0 0.0 0.00 0.00 0.00 95 1014.0
20260905073303 22 269 0.0 0.0 0.00 0.00 0.00 94 1014.0
20260905072803 22 179 0.0 1.6 0.00 0.00 0.00 95 1014.0
20260905072306 22 50 0.0 1.6 0.00 0.00 0.00 95 1014.0
20260905071803 22 124 0.0 0.0 0.00 0.00 0.00 94 1014.0
20260905071303 22 283 0.0 1.6 0.00 0.00 0.00 95 1014.4
20260905070803 22 119 0.0 1.6 0.00 0.00 0.00 95 1014.0
20260905070303 22 246 0.0 1.6 0.00 0.00 0.00 95 1014.0
20260905065803 22 55 0.0 1.6 0.00 0.00 0.00 95 1014.4
20260905065306 22 224 0.0 1.6 0.00 0.00 0.00 94 1014.4
20260905064803 22 62 0.0 1.6 0.00 0.00 0.00 94 1014.0
20260905064303 22 62 0.0 3.2 0.00 0.00 0.00 94 1014.4
20260905063803 22 202 0.0 3.2 0.00 0.00 0.00 94 1014.4
20260905063303 22 230 0.0 1.6 0.00 0.00 0.00 94 1014.4
20260905062803 22 230 0.0 1.6 0.00 0.00 0.00 94 1014.7
20260905062305 22 147 0.0 1.6 0.00 0.00 0.00 94 1015.1
20260905061803 22 269 0.0 1.6 0.00 0.00 0.00 95 1014.7
20260905061303 22 321 0.0 1.6 0.00 0.00 0.00 96 1014.4
20260905060803 22 242 0.0 1.6 0.00 0.00 0.00 95 1014.7
20260905060303 22 117 0.0 0.0 0.00 0.00 0.00 95 1014.7
20260905055803 22 74 0.0 1.6 0.00 0.00 0.00 95 1014.7
20260905055306 22 124 0.0 1.6 0.00 0.00 0.00 95 1014.7
20260905054803 22 129 0.0 1.6 0.00 0.00 0.00 96 1015.1
20260905054302 22 117 0.0 1.6 0.00 0.00 0.00 96 1014.7
20260905053803 22 117 0.0 1.6 0.00 0.00 0.00 96 1014.7
20260905053303 22 269 0.0 1.6 0.00 0.00 0.00 96 1014.7
20260905052803 22 44 0.0 1.6 0.00 0.00 0.00 96 1014.7